OE3APM-13 Weather Reports


Display with metric or nautical units.
time (UTC)temp
F
wind
direction
speed
MPH
gust
MPH
rain 1hr
in
rain 24hr
in
rain mn
in
humidity
%
barometer
mb
20260503015223 39 66 2.0 4.0 0.00 0.00 0.00 86 1018.2
20260503014717 39 59 2.0 3.0 0.00 0.00 0.00 85 1018.1
20260503014217 39 67 2.0 5.0 0.00 0.00 0.00 83 1018.1
20260503013713 39 67 3.0 5.0 0.00 0.00 0.00 84 1018.0
20260503013212 39 68 2.0 4.0 0.00 0.00 0.00 82 1018.1
20260503012711 39 69 1.0 3.0 0.00 0.00 0.00 81 1018.2
20260503012210 40 69 2.0 3.0 0.00 0.00 0.00 81 1018.2
20260503011710 40 69 2.0 3.0 0.00 0.00 0.00 83 1018.2
20260503011208 40 69 2.0 4.0 0.00 0.00 0.00 82 1018.4
20260503010707 40 69 2.0 4.0 0.00 0.00 0.00 83 1018.4
20260503010207 40 61 2.0 4.0 0.00 0.00 0.00 83 1018.4
20260503005704 40 61 1.0 3.0 0.00 0.00 0.00 83 1018.4
20260503005205 40 61 1.0 3.0 0.00 0.00 0.00 83 1018.4
20260503004704 40 61 1.0 3.0 0.00 0.00 0.00 80 1018.4
20260503004205 40 61 1.0 3.0 0.00 0.00 0.00 80 1018.4
20260503003702 40 56 1.0 3.0 0.00 0.00 0.00 77 1018.5
20260503003202 41 56 2.0 4.0 0.00 0.00 0.00 77 1018.5
20260503002701 41 56 2.0 4.0 0.00 0.00 0.00 76 1018.5
20260503002202 42 54 2.0 4.0 0.00 0.00 0.00 75 1018.5
20260503001704 42 57 2.0 3.0 0.00 0.00 0.00 74 1018.6
20260503001156 43 71 1.0 3.0 0.00 0.00 0.00 73 1018.7
20260503000650 43 71 1.0 3.0 0.00 0.00 0.00 73 1018.6
20260503000144 44 71 2.0 3.0 0.00 0.00 0.00 74 1018.7
20260502235647 44 71 2.0 5.0 0.00 0.00 0.00 75 1018.7
20260502235138 44 71 2.0 5.0 0.00 0.00 0.00 77 1018.7
20260502234635 44 46 2.0 4.0 0.00 0.00 0.00 77 1018.8
20260502234132 44 33 2.0 4.0 0.00 0.00 0.00 76 1018.9
20260502233633 44 58 2.0 4.0 0.00 0.00 0.00 74 1018.9
20260502233130 45 73 2.0 6.0 0.00 0.00 0.00 72 1018.8
20260502232633 45 105 3.0 6.0 0.00 0.00 0.00 72 1018.9
20260502232130 45 90 3.0 7.0 0.00 0.00 0.00 72 1018.9
20260502231632 46 119 4.0 7.0 0.00 0.00 0.00 74 1019.0
20260502231131 46 96 4.0 7.0 0.00 0.00 0.00 75 1019.0
20260502230633 46 122 3.0 7.0 0.00 0.00 0.00 75 1019.0
20260502230136 46 110 3.0 7.0 0.00 0.00 0.00 76 1019.0
20260502225632 46 123 3.0 7.0 0.00 0.00 0.00 77 1019.0
20260502225131 45 130 3.0 5.0 0.00 0.00 0.00 78 1019.0
20260502224633 45 115 3.0 5.0 0.00 0.00 0.00 76 1019.0
20260502224133 45 123 3.0 5.0 0.00 0.00 0.00 74 1019.1
20260502223623 45 123 3.0 5.0 0.00 0.00 0.00 75 1019.1
20260502223121 45 135 3.0 7.0 0.00 0.00 0.00 74 1019.2
20260502222623 46 126 3.0 7.0 0.00 0.00 0.00 72 1019.2
20260502222120 46 102 3.0 6.0 0.00 0.00 0.00 71 1019.3
20260502221621 47 86 2.0 6.0 0.00 0.00 0.00 68 1019.3
20260502221121 48 100 2.0 5.0 0.00 0.00 0.00 65 1019.4
20260502220621 48 90 2.0 3.0 0.00 0.00 0.00 64 1019.4
20260502220127 49 78 2.0 3.0 0.00 0.00 0.00 63 1019.4
20260502215619 50 78 1.0 4.0 0.00 0.00 0.00 62 1019.4
20260502215118 50 78 0.0 4.0 0.00 0.00 0.00 63 1019.4
20260502214615 51 137 0.0 0.0 0.00 0.00 0.00 59 1019.4
20260502214114 52 137 0.0 0.0 0.00 0.00 0.00 59 1019.4
20260502213613 52 137 0.0 2.0 0.00 0.00 0.00 63 1019.4
20260502213112 53 137 0.0 2.0 0.00 0.00 0.00 63 1019.5
20260502212612 54 137 0.0 2.0 0.00 0.00 0.00 65 1019.5
20260502212112 54 137 1.0 3.0 0.00 0.00 0.00 62 1019.5
20260502211613 55 137 2.0 4.0 0.00 0.00 0.00 62 1019.5
20260502211115 55 137 2.0 4.0 0.00 0.00 0.00 58 1019.4
20260502210607 55 128 2.0 5.0 0.00 0.00 0.00 62 1019.5
20260502210104 55 144 3.0 5.0 0.00 0.00 0.00 55 1019.5
20260502205604 55 123 3.0 6.0 0.00 0.00 0.00 53 1019.5
20260502205104 56 136 4.0 7.0 0.00 0.00 0.00 52 1019.5
20260502204604 55 136 4.0 8.0 0.00 0.00 0.00 49 1019.6
20260502204103 55 112 4.0 8.0 0.00 0.00 0.00 49 1019.6
20260502203603 55 108 4.0 7.0 0.00 0.00 0.00 50 1019.6
20260502203104 55 139 4.0 8.0 0.00 0.00 0.00 50 1019.6
20260502202603 55 137 5.0 9.0 0.00 0.00 0.00 51 1019.7
20260502202103 55 136 5.0 9.0 0.00 0.00 0.00 51 1019.8
20260502201604 54 115 5.0 9.0 0.00 0.00 0.00 52 1019.9
20260502201102 54 126 4.0 9.0 0.00 0.00 0.00 54 1019.8
20260502200602 53 132 3.0 8.0 0.00 0.00 0.00 57 1019.9
20260502195601 53 149 4.0 7.0 0.00 0.00 0.00 60 1019.9
20260502195101 53 148 4.0 7.0 0.00 0.00 0.00 60 1019.8
20260502194604 53 140 5.0 8.0 0.00 0.00 0.00 60 1019.9
20260502194101 53 144 5.0 8.0 0.00 0.00 0.00 61 1019.9
20260502193557 53 156 4.0 7.0 0.00 0.00 0.00 64 1019.9
20260502193046 53 136 3.0 7.0 0.00 0.00 0.00 64 1019.9
20260502192541 54 121 3.0 5.0 0.00 0.00 0.00 61 1019.9
20260502192041 55 125 2.0 4.0 0.00 0.00 0.00 60 1019.9
20260502191542 55 121 2.0 4.0 0.00 0.00 0.00 58 1019.9
20260502191043 56 121 2.0 4.0 0.00 0.00 0.00 55 1019.9
20260502190542 57 126 2.0 4.0 0.00 0.00 0.00 52 1019.9
20260502190045 58 144 2.0 4.0 0.00 0.00 0.00 51 1019.9
20260502185542 60 138 2.0 4.0 0.00 0.00 0.00 53 1019.9
20260502185043 60 132 2.0 3.0 0.00 0.00 0.00 54 1019.8
20260502184541 62 130 2.0 3.0 0.00 0.00 0.00 54 1019.8
20260502184042 62 130 1.0 3.0 0.00 0.00 0.00 52 1019.8
20260502183539 63 130 0.0 0.0 0.00 0.00 0.00 49 1019.8
20260502183037 64 130 1.0 2.0 0.00 0.00 0.00 47 1019.8
20260502182537 65 130 1.0 2.0 0.00 0.00 0.00 42 1019.7
20260502182036 66 130 1.0 2.0 0.00 0.00 0.00 39 1019.7
20260502181538 67 130 2.0 3.0 0.00 0.00 0.00 37 1019.7
20260502181035 67 130 2.0 4.0 0.00 0.00 0.00 36 1019.6
20260502180533 68 113 2.0 5.0 0.00 0.00 0.00 36 1019.6
20260502164021 74 139 4.0 8.0 0.00 0.00 0.00 27 1019.8
20260502163521 74 128 4.0 8.0 0.00 0.00 0.00 27 1019.8
20260502163023 74 161 4.0 8.0 0.00 0.00 0.00 27 1019.9
20260502162509 74 132 4.0 9.0 0.00 0.00 0.00 27 1020.0
20260502162008 74 109 4.0 9.0 0.00 0.00 0.00 28 1020.2
20260502161502 74 120 4.0 8.0 0.00 0.00 0.00 26 1020.2
20260502161001 74 164 4.0 8.0 0.00 0.00 0.00 27 1020.3
20260502160502 74 117 4.0 8.0 0.00 0.00 0.00 28 1020.3
20260502152000 75 126 4.0 10.0 0.00 0.00 0.00 28 1020.7
20260502151457 76 174 2.0 6.0 0.00 0.00 0.00 27 1020.8
20260502150956 75 171 2.0 6.0 0.00 0.00 0.00 28 1020.9
20260502150457 75 252 3.0 6.0 0.00 0.00 0.00 26 1020.9
20260502130440 74 199 5.0 10.0 0.00 0.00 0.00 27 1022.2
20260502123430 73 211 4.0 11.0 0.00 0.00 0.00 27 1022.4
20260502122933 73 81 5.0 11.0 0.00 0.00 0.00 30 1022.5
20260502122430 73 48 5.0 11.0 0.00 0.00 0.00 30 1022.6
20260502121929 74 160 3.0 9.0 0.00 0.00 0.00 30 1022.7
20260502121418 74 88 3.0 7.0 0.00 0.00 0.00 31 1022.7
20260502120913 74 265 3.0 7.0 0.00 0.00 0.00 28 1022.7
20260502120405 74 232 3.0 6.0 0.00 0.00 0.00 30 1022.8
20260502115909 74 211 4.0 9.0 0.00 0.00 0.00 28 1022.9
20260502115404 73 173 4.0 9.0 0.00 0.00 0.00 29 1023.0
20260502114906 73 95 5.0 12.0 0.00 0.00 0.00 27 1022.9
20260502114406 73 128 4.0 12.0 0.00 0.00 0.00 29 1023.0
20260502113906 72 129 4.0 9.0 0.00 0.00 0.00 31 1023.1
20260502113406 72 19 4.0 9.0 0.00 0.00 0.00 29 1023.2
20260502112905 72 129 4.0 9.0 0.00 0.00 0.00 31 1023.2
20260502112405 72 164 3.0 7.0 0.00 0.00 0.00 34 1023.3
20260502111907 72 128 2.0 7.0 0.00 0.00 0.00 30 1023.4
20260502111402 72 197 2.0 7.0 0.00 0.00 0.00 29 1023.4
20260502110905 72 259 3.0 9.0 0.00 0.00 0.00 35 1023.4
20260502110404 71 48 4.0 11.0 0.00 0.00 0.00 32 1023.5
20260502105903 71 176 5.0 11.0 0.00 0.00 0.00 33 1023.5
20260502105402 71 45 4.0 10.0 0.00 0.00 0.00 30 1023.6
20260502104903 71 198 4.0 8.0 0.00 0.00 0.00 30 1023.6
20260502104405 71 185 5.0 10.0 0.00 0.00 0.00 29 1023.7
20260502103404 71 114 3.0 7.0 0.00 0.00 0.00 32 1023.7
20260502102903 71 257 4.0 10.0 0.00 0.00 0.00 35 1023.7
20260502102401 71 178 4.0 10.0 0.00 0.00 0.00 35 1024.0
20260502101854 71 85 4.0 10.0 0.00 0.00 0.00 35 1024.1
20260502101348 71 86 4.0 9.0 0.00 0.00 0.00 34 1024.1
20260502100837 70 74 5.0 10.0 0.00 0.00 0.00 34 1024.2
20260502100331 70 83 4.0 10.0 0.00 0.00 0.00 36 1024.1
20260502091319 69 101 4.0 9.0 0.00 0.00 0.00 37 1024.9
20260502090819 68 129 4.0 9.0 0.00 0.00 0.00 38 1024.9
20260502090319 68 105 3.0 9.0 0.00 0.00 0.00 36 1024.9
20260502071305 61 329 0.0 3.0 0.00 0.00 0.00 56 1025.4
20260502070804 60 331 0.0 0.0 0.00 0.00 0.00 58 1025.4
20260502070302 60 331 0.0 0.0 0.00 0.00 0.00 58 1025.4
20260502065803 59 332 0.0 0.0 0.00 0.00 0.00 58 1025.5
20260502065306 58 335 0.0 2.0 0.00 0.00 0.00 62 1025.5
20260502064802 57 335 0.0 2.0 0.00 0.00 0.00 61 1025.5
20260502064303 56 347 0.0 2.0 0.00 0.00 0.00 57 1025.5
20260502063801 56 123 0.0 0.0 0.00 0.00 0.00 69 1025.5
20260502063300 54 123 0.0 0.0 0.00 0.00 0.00 71 1025.5
20260502062801 53 123 0.0 0.0 0.00 0.00 0.00 73 1025.5
20260502062301 51 27 0.0 0.0 0.00 0.00 0.00 78 1025.5
20260502061803 50 26 0.0 0.0 0.00 0.00 0.00 79 1025.5
20260502061301 49 26 0.0 0.0 0.00 0.00 0.00 83 1025.5
20260502060753 47 26 0.0 0.0 0.00 0.00 0.00 84 1025.7
20260502060252 46 26 0.0 0.0 0.00 0.00 0.00 85 1025.5
20260502055750 45 26 0.0 0.0 0.00 0.00 0.00 87 1025.5
20260502055252 44 26 0.0 0.0 0.00 0.00 0.00 89 1025.5
20260502054750 43 26 0.0 0.0 0.00 0.00 0.00 89 1025.4
20260502054251 42 26 0.0 0.0 0.00 0.00 0.00 90 1025.5
20260502053251 40 26 0.0 0.0 0.00 0.00 0.00 92 1025.5
20260502052744 40 26 0.0 0.0 0.00 0.00 0.00 93 1025.4
20260502052241 39 26 0.0 0.0 0.00 0.00 0.00 94 1025.4
20260502051740 38 26 0.0 1.0 0.00 0.00 0.00 94 1025.5
20260502051239 37 26 1.0 3.0 0.00 0.00 0.00 94 1025.5
20260502050739 37 26 2.0 3.0 0.00 0.00 0.00 93 1025.5
20260502050235 36 26 1.0 2.0 0.00 0.00 0.00 94 1025.4
20260502045736 35 26 1.0 4.0 0.00 0.00 0.00 93 1025.4
20260502045236 35 26 1.0 4.0 0.00 0.00 0.00 93 1025.4
20260502044732 34 19 0.0 3.0 0.00 0.00 0.00 93 1025.4
20260502044233 34 45 0.0 0.0 0.00 0.00 0.00 92 1025.3
20260502043731 33 45 0.0 0.0 0.00 0.00 0.00 92 1025.3
20260502043241 33 45 0.0 0.0 0.00 0.00 0.00 91 1025.3
20260502042729 33 45 0.0 0.0 0.00 0.00 0.00 91 1025.4
20260502042229 33 45 0.0 0.0 0.00 0.00 0.00 90 1025.4
20260502041728 33 45 0.0 0.0 0.00 0.00 0.00 90 1025.4
20260502041225 33 45 0.0 0.0 0.00 0.00 0.00 90 1025.4
20260502040725 33 45 0.0 0.0 0.00 0.00 0.00 90 1025.3
20260502040223 33 45 0.0 0.0 0.00 0.00 0.00 90 1025.3
20260502035720 33 45 0.0 0.0 0.00 0.00 0.00 90 1025.3
20260502035221 33 45 0.0 0.0 0.00 0.00 0.00 90 1025.3
20260502034720 34 45 0.0 0.0 0.00 0.00 0.00 90 1025.3
20260502034219 34 45 0.0 0.0 0.00 0.00 0.00 91 1025.3
20260502033720 34 45 0.0 0.0 0.00 0.00 0.00 91 1025.3
20260502033219 34 45 0.0 0.0 0.00 0.00 0.00 91 1025.2
20260502032711 34 45 0.0 0.0 0.00 0.00 0.00 91 1025.2
20260502032206 34 45 0.0 2.0 0.00 0.00 0.00 91 1025.2
20260502031705 34 45 0.0 2.0 0.00 0.00 0.00 91 1025.2
20260502031204 34 45 0.0 1.0 0.00 0.00 0.00 91 1025.2
20260502030704 33 45 1.0 3.0 0.00 0.00 0.00 90 1025.3
20260502030202 33 45 1.0 3.0 0.00 0.00 0.00 90 1025.3
20260502025701 33 45 2.0 3.0 0.00 0.00 0.00 89 1025.3
20260502025201 34 49 1.0 3.0 0.00 0.00 0.00 89 1025.3
20260502024701 34 49 0.0 3.0 0.00 0.00 0.00 89 1025.2
20260502024202 34 48 0.0 0.0 0.00 0.00 0.00 89 1025.3
20260502023701 34 48 0.0 0.0 0.00 0.00 0.00 89 1025.3
20260502023204 34 48 0.0 0.0 0.00 0.00 0.00 89 1025.4
20260502022701 34 48 0.0 0.0 0.00 0.00 0.00 88 1025.4
20260502022202 34 48 0.0 0.0 0.00 0.00 0.00 88 1025.4
20260502021705 34 48 0.0 0.0 0.00 0.00 0.00 88 1025.4
20260502021202 35 48 0.0 0.0 0.00 0.00 0.00 88 1025.5
20260502020657 35 48 0.0 0.0 0.00 0.00 0.00 89 1025.4
20260502020152 35 48 0.0 0.0 0.00 0.00 0.00 89 1025.4
20260502015649 35 48 0.0 0.0 0.00 0.00 0.00 89 1025.5